Location: Colebrook
(42.0017°N, 73.0973°W)
Time: 14:13:20
(UTC-05:00)

CAS-4B - Pass Details

Date: 05 December 2021
Orbit: 529 x 539 km, 43.0° (Epoch: 16 January)

Event Time Altitude Azimuth Distance (km) Brightness Sun altitude
Rises 18:06:21 0° 198° (SSW) 2,666 ? -19.0°
Reaches altitude 10° 18:09:33 10° 172° (S) 1,777 ? -19.5°
Enters shadow 18:10:57 13° 152° (SSE) 1,587 ? -19.8°
